This is the latest recevied weather packets stored in our database for station/object KG5APU. If no packets are shown the sender has not sent any weather packets the latest 10 day(s).
| Time | Temp. | Humidity | Pressure | Rain* | Wind** | Luminosity | Snow |
|---|---|---|---|---|---|---|---|
| 1777680181 | 17.22° C | 67% | 1016.7 hPa | 0 mm | - | 29 W/m² | - |
| 1777679578 | 17.22° C | 66% | 1016.7 hPa | 0 mm | - | 50 W/m² | - |
| 1777678977 | 17.22° C | 67% | 1016.5 hPa | 0 mm | - | 75 W/m² | - |
| 1777678372 | 17.22° C | 67% | 1016.6 hPa | 0 mm | - | 70 W/m² | - |
| 1777677771 | 17.78° C | 67% | 1016.3 hPa | 0 mm | - | 78 W/m² | - |
| 1777677166 | 17.22° C | 64% | 1016.1 hPa | 0 mm | - | 85 W/m² | - |
| 1777676563 | 17.78° C | 63% | 1016.1 hPa | 0 mm | - | 101 W/m² | - |
| 1777675957 | 17.78° C | 63% | 1016.2 hPa | 0 mm | - | 116 W/m² | - |
| 1777675357 | 17.78° C | 63% | 1015.9 hPa | 0 mm | - | 139 W/m² | - |
| 1777674755 | 17.78° C | 64% | 1016 hPa | 0 mm | - | 164 W/m² | - |
| 1777674155 | 17.78° C | 63% | 1016.2 hPa | 0 mm | - | 181 W/m² | - |
| 1777673555 | 17.78° C | 62% | 1016.1 hPa | 0 mm | - | 196 W/m² | - |
| 1777672955 | 17.78° C | 62% | 1016.3 hPa | 0 mm | - | 181 W/m² | - |
| 1777672353 | 17.78° C | 62% | 1016.1 hPa | 0 mm | - | 188 W/m² | - |
| 1777671750 | 17.78° C | 62% | 1016.1 hPa | 0 mm | - | 132 W/m² | - |
| 1777671149 | 17.78° C | 61% | 1015.8 hPa | 0 mm | - | 135 W/m² | - |
| 1777670547 | 17.78° C | 60% | 1016.2 hPa | 0 mm | - | 191 W/m² | - |
| 1777669947 | 17.78° C | 60% | 1016 hPa | 0 mm | - | 221 W/m² | - |
| 1777669346 | 17.78° C | 61% | 1016.5 hPa | 0 mm | - | 284 W/m² | - |
| 1777668745 | 17.78° C | 60% | 1016.7 hPa | 0 mm | - | 158 W/m² | - |
| 1777668145 | 17.78° C | 60% | 1016.3 hPa | 0 mm | - | 230 W/m² | - |
| 1777667545 | 17.78° C | 61% | 1017.1 hPa | 0 mm | - | 180 W/m² | - |
| 1777666944 | 17.78° C | 61% | 1017.2 hPa | 0 mm | - | 276 W/m² | - |
| 1777666343 | 17.78° C | 60% | 1017.2 hPa | 0 mm | - | 229 W/m² | - |
| 1777665743 | 17.78° C | 58% | 1016.5 hPa | 0 mm | - | 322 W/m² | - |
* Rain latest hour (hover to see other rain measurements)
** Current wind speed in m/s (hover to see current wind gust speed)